timestamp,wind_dir_avg,wind_spd_avg,wind_spd_max_dir,wind_spd_gust,battery_voltage,lat,long
2023-05-16 00:04:00+00:00,224.0,9.97,225.0,11.63,12.81,47.59359,-54.27349
2023-05-16 00:14:00+00:00,220.0,10.82,220.0,11.89,12.41,47.59359,-54.27349
2023-05-16 00:24:00+00:00,220.0,10.6,218.0,11.57,12.41,47.59359,-54.27349
2023-05-16 00:34:00+00:00,217.0,10.93,216.0,12.71,12.41,47.59359,-54.27349
2023-05-16 00:44:00+00:00,217.0,10.37,214.0,11.35,12.41,47.59359,-54.27349
2023-05-16 00:54:00+00:00,217.0,9.55,217.0,11.78,12.41,47.59359,-54.27349
2023-05-16 01:04:00+00:00,216.0,10.89,215.0,11.64,12.41,47.59359,-54.27349
2023-05-16 01:14:00+00:00,214.0,9.08,215.0,10.05,12.33,47.59359,-54.27349
2023-05-16 01:24:00+00:00,212.0,10.37,213.0,11.22,12.33,47.59359,-54.27349
2023-05-16 01:34:00+00:00,213.0,8.7,214.0,9.42,12.33,47.59359,-54.27349
2023-05-16 01:44:00+00:00,212.0,9.34,210.0,10.58,12.33,47.59359,-54.27349
2023-05-16 01:54:00+00:00,215.0,10.27,216.0,11.15,12.33,47.59359,-54.27349
2023-05-16 02:04:00+00:00,210.0,9.88,211.0,10.81,12.33,47.59359,-54.27349
2023-05-16 02:14:00+00:00,210.0,10.33,211.0,11.75,12.33,47.59359,-54.27349
2023-05-16 02:24:00+00:00,207.0,10.53,210.0,12.08,12.33,47.59359,-54.27349
2023-05-16 02:34:00+00:00,208.0,10.29,204.0,11.99,12.33,47.59359,-54.27349
2023-05-16 02:44:00+00:00,213.0,11.26,213.0,13.52,12.33,47.59359,-54.27349
2023-05-16 02:54:00+00:00,213.0,11.47,214.0,13.41,12.33,47.59359,-54.27349
2023-05-16 03:04:00+00:00,213.0,12.15,211.0,15.08,12.33,47.59359,-54.27349
2023-05-16 03:14:00+00:00,215.0,11.05,212.0,12.81,12.33,47.59359,-54.27349
2023-05-16 03:24:00+00:00,217.0,8.81,217.0,10.03,12.33,47.59359,-54.27349
2023-05-16 03:34:00+00:00,224.0,6.97,229.0,8.37,12.33,47.59359,-54.27349
2023-05-16 03:44:00+00:00,214.0,7.54,216.0,8.65,12.33,47.59359,-54.27349
2023-05-16 03:54:00+00:00,214.0,8.48,209.0,9.95,12.33,47.59359,-54.27349
2023-05-16 04:04:00+00:00,214.0,9.34,211.0,10.69,12.33,47.59359,-54.27349
2023-05-16 04:14:00+00:00,215.0,10.28,206.0,11.94,12.25,47.59359,-54.27349
2023-05-16 04:24:00+00:00,215.0,10.08,214.0,11.3,12.25,47.59359,-54.27349
2023-05-16 04:34:00+00:00,216.0,10.23,216.0,12.15,12.25,47.59359,-54.27349
2023-05-16 04:44:00+00:00,215.0,9.98,215.0,11.21,12.25,47.59359,-54.27349
2023-05-16 04:54:00+00:00,212.0,10.07,216.0,11.38,12.25,47.59359,-54.27349
2023-05-16 05:04:00+00:00,205.0,9.21,209.0,10.46,12.25,47.59359,-54.27349
2023-05-16 05:14:01+00:00,207.0,10.09,211.0,11.43,12.25,47.59359,-54.27349
2023-05-16 05:24:01+00:00,217.0,8.56,220.0,10.11,12.25,47.59359,-54.27349
2023-05-16 05:34:01+00:00,215.0,7.92,215.0,9.13,12.25,47.59359,-54.27349
2023-05-16 05:44:01+00:00,213.0,8.52,217.0,9.57,12.25,47.59359,-54.27349
2023-05-16 05:54:01+00:00,216.0,8.65,220.0,9.91,12.25,47.59359,-54.27349
2023-05-16 06:04:01+00:00,211.0,9.19,216.0,10.65,12.25,47.59359,-54.27349
2023-05-16 06:14:00+00:00,210.0,9.12,214.0,10.6,12.17,47.59359,-54.27349
2023-05-16 06:24:00+00:00,216.0,9.38,217.0,10.69,12.17,47.59359,-54.27349
2023-05-16 06:34:00+00:00,214.0,7.19,221.0,8.78,12.17,47.59359,-54.27349
2023-05-16 06:44:00+00:00,214.0,8.2,218.0,9.27,12.17,47.59359,-54.27349
2023-05-16 06:54:00+00:00,213.0,11.49,210.0,13.45,12.17,47.59359,-54.27349
2023-05-16 07:04:00+00:00,224.0,9.32,224.0,10.98,12.17,47.59359,-54.27349
2023-05-16 07:14:00+00:00,215.0,9.36,215.0,10.35,12.17,47.59359,-54.27349
2023-05-16 07:24:00+00:00,220.0,9.79,218.0,11.18,12.17,47.59359,-54.27349
2023-05-16 07:34:00+00:00,217.0,8.9,214.0,10.3,12.17,47.59359,-54.27349
2023-05-16 07:44:00+00:00,215.0,11.01,214.0,12.66,12.17,47.59359,-54.27349
2023-05-16 07:54:00+00:00,217.0,9.84,222.0,11.44,12.17,47.59359,-54.27349
2023-05-16 08:04:00+00:00,216.0,10.35,213.0,12.33,12.17,47.59359,-54.27349
2023-05-16 08:14:01+00:00,217.0,10.44,217.0,11.93,12.17,47.59359,-54.27349
2023-05-16 08:24:01+00:00,217.0,10.41,216.0,11.74,12.17,47.59359,-54.27349
2023-05-16 08:34:01+00:00,214.0,11.33,219.0,12.56,12.17,47.59359,-54.27349
2023-05-16 08:44:01+00:00,211.0,10.15,210.0,11.62,12.17,47.59359,-54.27349
2023-05-16 08:54:01+00:00,212.0,11.17,214.0,13.29,12.17,47.59359,-54.27349
2023-05-16 09:04:01+00:00,213.0,10.66,213.0,12.0,12.17,47.59359,-54.27349
2023-05-16 09:14:01+00:00,214.0,9.9,213.0,11.16,12.09,47.59359,-54.27349
2023-05-16 09:24:01+00:00,213.0,9.45,214.0,10.14,12.09,47.59359,-54.27349
2023-05-16 09:34:01+00:00,211.0,9.17,207.0,10.34,12.09,47.59359,-54.27349
2023-05-16 09:44:01+00:00,210.0,9.21,206.0,10.5,12.09,47.59359,-54.27349
2023-05-16 09:54:01+00:00,211.0,8.78,215.0,9.75,12.09,47.59359,-54.27349
2023-05-16 10:04:01+00:00,210.0,8.5,206.0,9.49,12.09,47.59359,-54.27349
2023-05-16 10:14:01+00:00,209.0,8.9,207.0,10.22,12.41,47.59359,-54.27349
2023-05-16 10:24:01+00:00,209.0,9.02,209.0,10.42,12.41,47.59359,-54.27349
2023-05-16 10:34:01+00:00,209.0,8.82,209.0,10.48,12.41,47.59359,-54.27349
2023-05-16 10:44:01+00:00,208.0,8.73,210.0,9.85,12.41,47.59359,-54.27349
2023-05-16 10:54:01+00:00,205.0,8.28,209.0,9.27,12.41,47.59359,-54.27349
2023-05-16 11:04:01+00:00,207.0,8.98,210.0,9.59,12.41,47.59359,-54.27349
2023-05-16 11:14:00+00:00,210.0,9.33,212.0,10.54,13.21,47.59359,-54.27349
2023-05-16 11:24:00+00:00,209.0,9.33,211.0,10.55,13.21,47.59359,-54.27349
2023-05-16 11:34:00+00:00,209.0,9.95,209.0,11.22,13.21,47.59359,-54.27349
2023-05-16 11:44:00+00:00,211.0,9.65,211.0,10.75,13.21,47.59359,-54.27349
2023-05-16 11:54:00+00:00,211.0,9.59,211.0,11.03,13.21,47.59359,-54.27349
2023-05-16 12:04:00+00:00,212.0,10.18,209.0,11.69,13.21,47.59359,-54.27349
2023-05-16 12:14:00+00:00,210.0,9.22,209.0,10.57,13.53,47.59359,-54.27349
2023-05-16 12:24:00+00:00,210.0,9.71,211.0,10.95,13.53,47.59359,-54.27349
2023-05-16 12:34:00+00:00,209.0,10.13,214.0,11.22,13.53,47.59359,-54.27349
2023-05-16 12:44:00+00:00,212.0,11.43,210.0,12.83,13.53,47.59359,-54.27349
2023-05-16 12:54:00+00:00,214.0,12.23,212.0,14.2,13.53,47.59359,-54.27349
2023-05-16 13:04:00+00:00,213.0,12.02,208.0,14.1,13.53,47.59359,-54.27349
2023-05-16 13:14:00+00:00,215.0,10.53,216.0,12.32,13.68,47.59359,-54.27349
2023-05-16 13:24:00+00:00,215.0,10.07,218.0,11.98,13.68,47.59359,-54.27349
2023-05-16 13:34:00+00:00,212.0,10.33,210.0,11.89,13.68,47.59359,-54.27349
2023-05-16 13:44:00+00:00,206.0,9.63,208.0,11.63,13.68,47.59359,-54.27349
2023-05-16 13:54:00+00:00,209.0,11.09,211.0,12.25,13.68,47.59359,-54.27349
2023-05-16 14:04:00+00:00,208.0,10.26,211.0,12.06,13.68,47.59359,-54.27349
2023-05-16 14:14:01+00:00,209.0,10.48,208.0,11.9,13.68,47.59359,-54.27349
2023-05-16 14:24:01+00:00,207.0,11.46,209.0,12.96,13.68,47.59359,-54.27349
2023-05-16 14:34:01+00:00,208.0,10.07,201.0,11.77,13.68,47.59359,-54.27349
2023-05-16 14:44:01+00:00,209.0,11.17,209.0,12.76,13.68,47.59359,-54.27349
2023-05-16 14:54:01+00:00,210.0,10.01,205.0,11.46,13.68,47.59359,-54.27349
2023-05-16 15:04:01+00:00,209.0,9.67,209.0,10.87,13.68,47.59359,-54.27349
2023-05-16 15:14:01+00:00,207.0,9.84,208.0,11.1,14.32,47.59359,-54.27349
2023-05-16 15:24:01+00:00,208.0,10.5,211.0,11.71,14.32,47.59359,-54.27349
2023-05-16 15:34:01+00:00,206.0,10.1,208.0,11.46,14.32,47.59359,-54.27349
2023-05-16 15:44:01+00:00,207.0,10.36,209.0,11.32,14.32,47.59359,-54.27349
2023-05-16 15:54:01+00:00,209.0,11.3,211.0,12.67,14.32,47.59359,-54.27349
2023-05-16 16:04:01+00:00,211.0,11.53,212.0,12.68,14.32,47.59359,-54.27349
2023-05-16 16:14:00+00:00,210.0,11.88,214.0,13.39,14.48,47.59359,-54.27349
2023-05-16 16:24:00+00:00,212.0,10.74,213.0,11.99,14.48,47.59359,-54.27349
2023-05-16 16:34:00+00:00,211.0,10.77,213.0,12.54,14.48,47.59359,-54.27349
2023-05-16 16:44:00+00:00,207.0,9.72,209.0,10.85,14.48,47.59359,-54.27349
2023-05-16 16:54:00+00:00,200.0,9.73,204.0,10.8,14.48,47.59359,-54.27349
2023-05-16 17:04:00+00:00,212.0,10.37,211.0,11.9,14.48,47.59359,-54.27349
2023-05-16 17:14:00+00:00,208.0,10.08,206.0,11.19,14.4,47.59359,-54.27349
2023-05-16 17:24:00+00:00,211.0,9.79,212.0,10.88,14.4,47.59359,-54.27349
2023-05-16 17:34:00+00:00,212.0,11.44,212.0,13.94,14.4,47.59359,-54.27349
2023-05-16 17:44:00+00:00,211.0,10.74,212.0,12.12,14.4,47.59359,-54.27349
2023-05-16 17:54:00+00:00,208.0,9.0,206.0,10.64,14.4,47.59359,-54.27349
2023-05-16 18:04:00+00:00,205.0,9.54,205.0,10.79,14.4,47.59359,-54.27349
2023-05-16 18:14:00+00:00,210.0,10.7,209.0,11.93,13.92,47.59359,-54.27349
2023-05-16 18:24:00+00:00,211.0,11.44,213.0,12.93,13.92,47.59359,-54.27349
2023-05-16 18:34:00+00:00,209.0,9.87,212.0,11.86,13.92,47.59359,-54.27349
2023-05-16 18:44:00+00:00,211.0,10.43,210.0,11.74,13.92,47.59359,-54.27349
2023-05-16 18:54:00+00:00,217.0,10.72,217.0,11.96,13.92,47.59359,-54.27349
2023-05-16 19:04:00+00:00,205.0,10.41,205.0,11.98,13.92,47.59359,-54.27349
2023-05-16 19:14:00+00:00,208.0,11.0,208.0,12.44,13.6,47.59359,-54.27349
2023-05-16 19:24:00+00:00,210.0,10.3,209.0,11.82,13.6,47.59359,-54.27349
2023-05-16 19:34:00+00:00,212.0,10.69,211.0,11.93,13.6,47.59359,-54.27349
2023-05-16 19:44:00+00:00,209.0,9.76,209.0,10.9,13.6,47.59359,-54.27349
2023-05-16 19:54:00+00:00,210.0,10.26,210.0,11.45,13.6,47.59359,-54.27349
2023-05-16 20:04:00+00:00,211.0,10.39,208.0,11.61,13.6,47.59359,-54.27349
2023-05-16 20:14:00+00:00,213.0,10.87,211.0,12.46,13.68,47.59359,-54.27349
2023-05-16 20:24:00+00:00,212.0,11.06,214.0,12.1,13.68,47.59359,-54.27349
2023-05-16 20:34:00+00:00,214.0,10.59,211.0,11.41,13.68,47.59359,-54.27349
2023-05-16 20:44:00+00:00,214.0,9.83,213.0,11.13,13.68,47.59359,-54.27349
2023-05-16 20:54:00+00:00,212.0,11.3,214.0,13.37,13.68,47.59359,-54.27349
2023-05-16 21:04:00+00:00,209.0,9.46,207.0,10.5,13.68,47.59359,-54.27349
2023-05-16 21:14:00+00:00,206.0,9.46,207.0,10.55,13.6,47.59359,-54.27349
2023-05-16 21:24:00+00:00,208.0,9.69,201.0,10.82,13.6,47.59359,-54.27349
2023-05-16 21:34:00+00:00,206.0,9.52,208.0,10.85,13.6,47.59359,-54.27349
2023-05-16 21:44:00+00:00,211.0,9.2,207.0,10.45,13.6,47.59359,-54.27349
2023-05-16 21:54:00+00:00,208.0,9.07,209.0,10.21,13.6,47.59359,-54.27349
2023-05-16 22:04:00+00:00,210.0,9.88,209.0,11.22,13.6,47.59359,-54.27349
2023-05-16 22:14:00+00:00,200.0,8.84,203.0,9.8,13.44,47.59359,-54.27349
2023-05-16 22:24:00+00:00,197.0,8.13,198.0,9.25,13.44,47.59359,-54.27349
2023-05-16 22:34:00+00:00,191.0,7.14,191.0,8.21,13.44,47.59359,-54.27349
2023-05-16 22:44:00+00:00,208.0,9.09,207.0,10.28,13.44,47.59359,-54.27349
2023-05-16 22:54:00+00:00,208.0,8.67,208.0,9.61,13.44,47.59359,-54.27349
2023-05-16 23:04:00+00:00,186.0,5.71,195.0,7.54,13.44,47.59359,-54.27349
2023-05-16 23:14:00+00:00,209.0,8.27,204.0,9.53,12.89,47.59359,-54.27349
2023-05-16 23:24:00+00:00,198.0,6.56,198.0,7.74,12.89,47.59359,-54.27349
2023-05-16 23:34:00+00:00,200.0,7.86,202.0,8.56,12.89,47.59359,-54.27349
2023-05-16 23:44:00+00:00,200.0,7.5,199.0,8.61,12.89,47.59359,-54.27349
2023-05-16 23:54:00+00:00,205.0,7.17,194.0,8.42,12.89,47.59359,-54.27349
